Location: Acequia del Cap
(41.7000°N, 0.6167°E)
Time: 16:49:27
(UTC+00:00)

Meteor 1-31 Rocket - Pass Details

Date: 07 August 2020
Orbit: 520 x 548 km, 97.6° (Epoch: 22 September)

Event Time Altitude Azimuth Distance (km) Brightness Sun altitude
Rises 04:24:01 0° 18° (NNE) 2,703 7.1 -6.6°
Reaches altitude 10° 04:26:12 10° 24° (NNE) 1,802 6.3 -6.2°
Maximum altitude 04:29:59 48° 99° (E) 699 3.8 -5.6°
Drops below altitude 10° 04:33:41 10° 175° (S) 1,771 5.2 -5.0°
Sets 04:35:49 0° 181° (S) 2,651 6.0 -4.6°
